Tracking 28790 objects as of 19-Apr-2024
HD Live streaming from Space Station
objects crossing your sky now

FENGYUN 1C DEB

Track FENGYUN 1C DEB now!
10-day predictions


NORAD ID: 30765
Int'l Code: 1999-025AUB
Perigee: 809.0 km
Apogee: 914.4 km
Inclination: 98.8 °
Period: 102.0 minutes
Semi major axis: 7232 km
RCS: 0.0098 m2 (small)
Launch date: May 10, 1999
Source: People's Republic of China (PRC)
Launch site: Taiyaun Space Center, China (TSC)

Note: This is SATELLITE DEBRIS
Your satellite tracking list
Your tracking list is empty




NASA's NSSDC Master Catalog

Two Line Element Set (TLE):
1 30765U 99025AUB 24109.10582403  .00004123  00000-0  22435-2 0  9993
2 30765  98.8461 157.7798 0072902 124.3336 264.6203 14.11403903884251
Source of the keplerian elements: AFSPC